Погода в Кемчуге

Погода в Кемчуге : погода сейчас, прогноз погоды и архив. Всё, что Вы хотите узнать о погоде в Кемчуге!

Хотите узнать прогноз погоды в Кемчуге? Тогда Вам сюда: Погода в Кемчуге

Поиск расширенной информации на нашем сайте:

Другие новости

Новости СМИ2

Главная страница сайта

Новости сайта

02.10.2013

Напоминаем, что на нашем новом сайте вы можете получить высокодетализированные прогнозы погоды по пунктам России, СНГ и мира (включающие важные для авиации метеовеличины, такие как направление и скорость ветра, видимость, явления погоды, количество и форма облачности, нижняя и верхняя граница облачности), а также ознакомиться с разнообразными материалами по авиационной метеорологии и подборкой полезных ссылок на эту тему.

Сайт Метеоцентр.Азия посвящён разработке технологий оптимизации авиаметеорологического обслуживания, включая проектирование и перспективное создание нескольких автоматизированных авиаметеорологических систем:
- система выпуска высокодетальных прогностических карт явлений погоды для нижнего воздушного пространства по России и ближнему зарубежью;
- система верификации прогнозов TAF (выпускаемых синоптиками официальных АМСГ РФ и ближнего зарубежья) и AUTOTAF (выпускаемых сайтом Метеоцентр.Азия) - выявление ошибок, онлайн-сопоставление с фактической погодой METAR, автоматическое внесение коррективов в прогнозы при резком отклонении фактической погоды от прогноза, подсчёт оправдываемости прогнозов по элементам и в целом;
- система обработки, анализа и отображения авиаметеорологической информации для применения провайдерами метеорологической информации.

Рекомендуем: пластиковая упаковка по низкой цене

Погода в Кемчуге - сегодня

Время (UTC), дата Ветер
(°,м/с) 
Видим.   Явления Облачность Т
(°С)
Тd
(°С)
f(%) Тe
(°С)
Pmin
(гПа)
dP
(гПа)
Po
(мм)
O2
(г/м3)
Тmin Tmax R s Состояние
почвы
09 25.04.17 260 (З) 3{10}  20000 м    3/1 1000 м верхняя 
[Cu hum|Ci fib]
+18.7 +0.1 29 +19  1025.8  0.4  740  279           
12 25.04.17 290 (З) 20000 м    8/0 верхняя 
[Cs]
+17.1 -1.3 28 +18  1026.6  0.6  741  281    +18.8       
15 25.04.17 тихо ()   50000 м    8/0 верхняя 
[Cs]
+12.8 -2.5 34 +13  1028.5  1.2  742  286           
18 25.04.17 240 (ЮЗ) 50000 м    3/0 верхняя 
[Cs]
+7.6 -0.9 55 +9  1030  0.7  742  291           
21 25.04.17 тихо ()   50000 м    6/0 верхняя 
[Ci sp]
+1.7 -1.2 81 +2  1031.1  0.2  742  297           
00 26.04.17 тихо ()   20000 м    8/8 1000 м 
[Sc]
+1.9 +0 87 +2  1031.5  0.5  743  297  +0.9      мокрый или
старый снег
50-90% 
03 26.04.17 140 (ЮВ) 20000 м    4/0 верхняя 
[Ci sp]
+14.1 +1.8 43 +15  1029.4  -0.3  742  284           
06 26.04.17 210 (ЮЗ) 20000 м    4/0 верхняя 
[Cs]
+20.5 -0 25 +21  1026.7  -1.8  741  278           
09 26.04.17 210 (ЮЗ) 20000 м    6/0 верхняя 
[Cs]
+22.3 -2.7 19 +22  1024.2  -2.2  739  276           
12 26.04.17 170 (Ю) 20000 м    8/0 верхняя 
[Cs]
+20.9 -1.8 22 +21  1022.1  -2.2  738  276    +22.7       
15 26.04.17 130 (ЮВ) 50000 м    8/3 600 м кучево-дожд., верхняя 
[Cb cap|Cs]
+16.3 -1.3 30 +17  1021.4  -1.2  737  280           
18 26.04.17 110 (В) 50000 м    3/0 верхняя 
[Ci fib]
+13.2 -1.7 36 +13  1020.3  -1.5  736  283           
21 26.04.17 120 (ЮВ) 50000 м    5/0 верхняя 
[Cs]
+12.6 -0.5 40 +13  1018.9  -1.5  735  283           
00 27.04.17 140 (ЮВ) 20000 м    4/0 верхняя 
[Cs]
+11.6 +1.3 49 +13  1017.9  -1.1  734  283  +8.1      мокрый или
старый снег
50-90% 
03 27.04.17 220 (ЮЗ) 20000 м    8/0 верхняя 
[Cs]
+20.6 +1.4 28 +21  1015.3  -1.3  733  274           
06 27.04.17 210 (ЮЗ) 20000 м    8/0 верхняя 
[Cs]
+24.6 -0.5 19 +25  1013.4  -1.3  732  270           
09 27.04.17 260 (З) 7-11{11}  20000 м    6/0 верхняя 
[Cs]
+26.6 -3.3 14 +27  1010.8  -2.3  730  268           
12 27.04.17 250 (З) 5{12}  20000 м    3/0 верхняя 
[Cs]
+25.8 -7.6 10 +26  1009.3  -1.6  729  269    +27.2       
15 27.04.17 200 (Ю) 15000 м  дым  3/3 600 м кучево-дожд. 
[Cb cap]
+18.8 -4.4 20 +19  1010.8  0.6  729  275           
18 27.04.17 230 (ЮЗ) 15000 м  дым  ясно 
+14.7 -3.6 28 +16  1010.9  -0.4  729  279           
21 27.04.17 250 (З) 15000 м  дым  5/3 600 м кучево-дожд., верхняя 
[Cb cap|Cs]
+14.1 -2.8 31 +15  1010.9  729  280           
00 28.04.17 290 (З) 10 км  дым  8/3 600 м кучево-дожд., верхняя 
[Cb cap|Ci fib]
+12.7 -0.7 40 +14  1014.2  2.9  731  282  +12.1      мокрый или
старый снег
50-90% 
03 28.04.17 340 (С) 10 км  дым  8/8 600 м кучево-дожд. 
[Cb cap]
+14.6 +4.5 51 +15  1015.6  1.7  732  279  +11.9         
06 28.04.17 330 (СЗ) 20000 м    10/8 600 м кучево-дожд., средняя 
[Cb cap|As op]
+14 +4.9 54 +14  1017.2  1.4  734  280           
09 28.04.17 280 (З) 20000 м    10/6 600 м кучево-дожд., средняя 
[Cb cap|As trans]
+16.1 +4.9 47 +17  1016.7  -0.2  733  278           
Время (UTC), дата Ветер
(°,м/с) 
Видим.   Явления Облачность Т
(°С)
Тd
(°С)
f(%) Тe
(°С)
Pmin
(гПа)
dP
(гПа)
Po
(мм)
O2
(г/м3)
Тmin Tmax R s Состояние
почвы

Для получения пояснительной информации подведите курсор к названию столбца.

ПОГОДА в Кемчуге - архив

Всё, что Вы хотите узнать о погоде в Кемчуге - удобно и подробно!

Выберите нужную дату (начиная с 1 января 2015* года) и нажмите кнопку "Найти".
Будут отображены архивные сводки погоды по пункту Кемчуг, начиная с указанной даты.


Отображать данные в формате CSV (для использования в таблицах Excel)


Внимание! Наш архив погоды предназначен исключительно для личного некоммерческого использования в познавательных целях. Если Вам необходимы официальные справки о состоянии погоды (для производственных, юридических, коммерческих и т.п. целей), обращайтесь в органы Росгидромета.

*Примечание: данная дата относится к архиву по метеостанциям СССР (Россия, СНГ, Балтия).
Архив по метеостанциям Зарубежной Европы и Азии (кроме Китая) хранится 10 дней, по другим регионам земного шара (Китай, Африка, Америка, Австралия, Океания) - 1 день.

Кемчуг - район местоположения метеостанции


Название, широта, долгота, высота метеостанции:
Кемчуг 56.1°ш. 91.7°д. 332 м над ур. моря [Российская Федерация]

Дополнительная информация

В oтличие oт бoльшинства пoгoдных сайтoв мы публикуем пoдрoбную метеoинфoрмацию в детальнoм прoфессиoнальнoм фoрмате.

Характеристики температуры и влажнoсти вoздуха измеряются на высoте 2 м в тени вдали oт зданий и деревьев.
Скoрoсть ветра измеряется на высoте 10 м (на урoвне рoста челoвека скoрoсть ветра ниже в 1.5-2 раза). Если метеoстанция нахoдится в гoрoде или в лесу, тo скoрoсть ветра занижена на 2-4 м/с пo сравнению с oткрытым местoм. Скoрoсть ветра над акватoриями крупных рек и oзёр, а также на вершинах хoлмoв на 2-5 м/с выше, чем в oбычных услoвиях.
Атмoсфернoе давление в разных тoчках местнoсти мoжет значительнo oтличаться oт давления на метеoстанции, в зависимoсти oт услoвий рельефа (при пoдъёме на 10 м давление пoнижается примернo на 1 мм рт.ст.).